Regional Weather Roundup
Issued by NWS

Home | Current Version | Previous Version | Text Only | Print | Product List | Glossary On
Versions: 1 2 3 4 5 6 7 8 9 10 11 12 13 14 15 16 17 18 19 20 21 22 23 24 25 26 27 28 29 30 31 32 33 34 35 36 37 38 39 40 41 42 43 44 45 46 47 48 49 50
000
ASUS43 KTOP 161659
RWRKS

WEATHER ROUNDUP FOR KANSAS
NATIONAL WEATHER SERVICE GOODLAND KS
1200 PM CDT TUE SEP 16 2014

NOTE:  "FAIR" INDICATES FEW OR NO CLOUDS BELOW 12,000 FEET WITH NO
SIGNIFICANT WEATHER AND/OR OBSTRUCTIONS TO VISIBILITY.

KSZ001>006-013>018-027>032-041>047-161800-
NORTHWEST KANSAS

CITY           SKY/WX    TMP DP  RH WIND       PRES   REMARKS
GOODLAND       SUNNY     69  54  58 SW15      30.13F
HAYS           CLOUDY    61  48  63 S14       30.17F
HILL CITY      CLOUDY    63  53  70 S9        30.16F
RUSSELL        CLOUDY    61  51  70 SE12      30.16F
$$

KSZ061>065-074>080-084>089-161800-
SOUTHWEST KANSAS

CITY           SKY/WX    TMP DP  RH WIND       PRES   REMARKS
DODGE CITY     MOSUNNY   72  58  61 S12G18    30.17F
ELKHART          N/A     72  57  59 S10         N/A
GARDEN CITY    CLOUDY    68  58  70 S14       30.16F
GREAT BEND     CLOUDY   N/A N/A N/A SE10      30.18
LIBERAL        SUNNY     73  59  60 S15       30.19F
$$

KSZ066>073-081>083-090>101-161800-
SOUTHEAST KANSAS

CITY           SKY/WX    TMP DP  RH WIND       PRES   REMARKS
CHANUTE        CLOUDY    69  58  67 NE6       30.19F
COFFEYVILLE    CLOUDY    64  58  80 NE6       30.18F
HUTCHINSON     CLOUDY    66  51  58 E9        30.19F
NEWTON         CLOUDY    64  50  59 E6        30.21F
PARSONS          N/A     67  58  72 NE7       30.19F
WICHITA INTL   CLOUDY    68  53  58 E5        30.18F
WICHITA JABRA  CLOUDY    66  53  63 SE6       30.18F
WICHITA MCCONL CLOUDY    68  52  56 E5        30.19F
WINFIELD       CLOUDY    66  57  72 NE8       30.19F
$$

KSZ007>012-019>026-033>040-048>060-102>105-161800-
NORTHEAST KANSAS

CITY           SKY/WX    TMP DP  RH WIND       PRES   REMARKS
CONCORDIA      SUNNY     64  52  64 E8        30.18F
EMPORIA        SUNNY     65  51  60 E6        30.19F
LAWRENCE       SUNNY     65  50  58 E7        30.20F
MANHATTAN      SUNNY     65  49  56 VRB6      30.19F
OLATHE IND     SUNNY     64  52  64 CALM      30.21F
OLATHE EXE     SUNNY     63  53  70 NE5       30.19F
SALINA         CLOUDY    63  52  67 SE7       30.19F
TOPEKA BILLARD SUNNY     65  51  60 E5        30.20F
TOPEKA FORBES  SUNNY     65  50  58 SE7       30.20F
$$


USA.gov is the U.S. government's official web portal to all federal, state and local government web resources and services.